Location: Yellowknife
(62.4500°N, 114.3500°W)
Time: 09:35:44
(UTC-06:00)

Envisat - Visible Passes

Search period start: 28 September 2023 00:00
Search period end: 08 October 2023 00:00
Orbit: 763 x 764 km, 98.2° (Epoch: 27 September)

Date Brightness Start Highest point End Pass type
(mag) Time Alt. Az. Time Alt. Az. Time Alt. Az.
28 Sep 4.4 04:52:34 10° NNE 04:57:19 38° E 05:02:02 10° SSE visible
28 Sep 3.1 06:31:35 10° NNE 06:36:36 59° WNW 06:41:35 10° SW visible
29 Sep 5.2 04:15:40 10° NE 04:19:42 23° E 04:23:43 10° SE visible
29 Sep 3.0 05:54:18 10° NNE 05:59:26 87° ESE 06:04:31 10° SSW visible
30 Sep 5.7 03:39:15 10° NE 03:41:54 14° ENE 03:44:31 10° ESE visible
30 Sep 3.7 05:17:05 10° NNE 05:22:06 53° E 05:27:04 10° S visible
30 Sep 3.4 06:56:16 10° NNE 07:01:06 44° WNW 07:05:53 10° SW visible
01 Oct 4.6 04:40:01 10° NNE 04:44:36 32° E 04:49:08 10° SSE visible
01 Oct 3.0 06:18:56 10° NNE 06:24:00 69° WNW 06:29:04 10° SSW visible
02 Oct 5.4 04:03:14 10° NE 04:06:55 20° E 04:10:35 10° SE visible
02 Oct 3.2 05:41:40 10° NNE 05:46:47 74° ESE 05:51:52 10° SSW visible
03 Oct 5.8 03:27:16 10° NE 03:29:02 12° ENE 03:30:49 10° E visible
03 Oct 4.0 05:04:30 10° NNE 05:09:24 45° E 05:14:16 10° S visible
03 Oct 3.2 06:43:36 10° NNE 06:48:32 51° WNW 06:53:25 10° SW visible
04 Oct 4.9 04:27:30 10° NNE 04:31:50 27° E 04:36:09 10° SSE visible
04 Oct 3.0 06:06:17 10° NNE 06:11:25 81° WNW 06:16:30 10° SSW visible
05 Oct 5.6 03:50:52 10° NE 03:54:05 17° E 03:57:19 10° ESE visible
05 Oct 3.4 05:29:03 10° NNE 05:34:08 63° ESE 05:39:11 10° S visible
05 Oct 3.6 07:08:18 10° NNE 07:12:59 38° NW 07:17:38 10° WSW visible
06 Oct 4.3 04:51:55 10° NNE 04:56:41 38° E 05:01:24 10° SSE visible
06 Oct 3.1 06:30:57 10° NNE 06:35:57 59° WNW 06:40:57 10° SW visible
07 Oct 5.1 04:15:01 10° NE 04:19:03 23° E 04:23:05 10° SE visible
07 Oct 3.0 05:53:39 10° NNE 05:58:47 87° ESE 06:03:52 10° SSW visible
